Belleville, IL

3:16 AM CDT on May 27, 2017 (GMT -0500)
Scott Air Force Base-Midamerica

Weather History for KBLV - March, 2013

Change the Weather History Date:

Saturday, March 16, 2013

  Actual Average Record
Temperature  
Mean Temperature 48 °F -  
Max Temperature 59 °F 57 °F 81 °F (2015)
Min Temperature 38 °F 33 °F 15 °F (1970)
Degree Days  
Heating Degree Days 17    
Moisture  
Dew Point 40 °F    
Average Humidity 81    
Maximum Humidity 100    
Minimum Humidity 60    
Precipitation  
Precipitation 0.02 in - - ()
Sea Level Pressure  
Sea Level Pressure 29.92 in    
Wind  
Wind Speed 8 mph (North)    
Max Wind Speed 16 mph    
Max Gust Speed 25 mph    
Visibility 9 miles    
Events Rain    
Averages and records for this station are not official NWS values.
T = Trace of Precipitation, MM = Missing Value Source: NWS Daily Summary

Daily Weather History Graph

Daily Weather History Graph

Search for Another Location

Airport or City:

Trip Planner

Search our weather history database for the weather conditions in past years. The results will help you decide how hot, cold, wet, or windy it might be!

Date:

Astronomy

Mar. 16, 2013 Rise Set
Actual Time 7:08 AM CDT 7:07 PM CDT
Civil Twilight 6:42 AM CDT 7:34 PM CDT
Nautical Twilight 6:11 AM CDT 8:04 PM CDT
Astronomical Twilight 5:40 AM CDT 8:36 PM CDT
Moon 9:42 AM CDT (3/16) No Moon Set
Length of Visible Light 12h 51m
Length of Day
11h 59m
Waxing Crescent, 23% of the Moon is Illuminated
Mar 16
Waxing Crescent
Mar 19
First Quarter
Mar 27
Full
Apr 2
Last Quarter
Apr 10
New

Hourly Weather History & Observations

Time (CDT) Temp. Windchill Dew Point Humidity Pressure Visibility Wind Dir Wind Speed Gust Speed Precip Events Conditions
12:55 AM 55.9 °F - 48.4 °F 76% 29.66 in 10.0 mi SW 5.8 mph - N/A   Clear
1:55 AM 56.8 °F - 45.3 °F 65% 29.65 in 10.0 mi SW 8.1 mph - N/A   Clear
2:55 AM 58.1 °F - 44.4 °F 60% 29.65 in 10.0 mi SW 6.9 mph - N/A   Partly Cloudy
3:55 AM 55.4 °F - 43.3 °F 64% 29.65 in 10.0 mi WSW 5.8 mph - N/A   Clear
4:55 AM 52.5 °F - 42.6 °F 69% 29.66 in 10.0 mi WSW 5.8 mph - N/A   Clear
5:55 AM 53.8 °F - 43.3 °F 68% 29.69 in 10.0 mi West 8.1 mph - N/A   Clear
6:55 AM 55.9 °F - 46.9 °F 72% 29.73 in 10.0 mi NW 15.0 mph - N/A   Clear
7:55 AM 54.1 °F - 45.9 °F 74% 29.77 in 10.0 mi NW 12.7 mph - N/A   Clear
8:55 AM 50.5 °F - 44.1 °F 78% 29.82 in 10.0 mi NNW 16.1 mph 25.3 mph N/A   Partly Cloudy
9:34 AM 46.4 °F 41.1 °F 41.0 °F 81% 29.87 in 8.0 mi North 11.5 mph 19.6 mph N/A   Mostly Cloudy
9:55 AM 44.8 °F 39.4 °F 41.0 °F 87% 29.89 in 6.0 mi NNW 10.4 mph 20.7 mph N/A   Mostly Cloudy
10:00 AM 44.6 °F 39.7 °F 41.0 °F 87% 29.91 in 5.0 mi NNW 9.2 mph 24.2 mph N/A   Overcast
10:26 AM 41.0 °F 33.1 °F 37.4 °F 87% 29.92 in 8.0 mi NNW 15.0 mph 23.0 mph N/A   Overcast
10:55 AM 41.5 °F 36.4 °F 37.0 °F 84% 29.93 in 9.0 mi North 8.1 mph 20.7 mph N/A   Overcast
11:55 AM 43.2 °F 39.0 °F 37.0 °F 79% 29.97 in 10.0 mi North 6.9 mph - N/A   Overcast
12:55 PM 44.2 °F 41.0 °F 37.6 °F 77% 29.99 in 10.0 mi North 5.8 mph - N/A   Overcast
1:55 PM 45.5 °F 41.3 °F 37.4 °F 73% 29.98 in 10.0 mi North 8.1 mph - N/A   Overcast
2:55 PM 45.1 °F 42.0 °F 37.4 °F 74% 29.99 in 10.0 mi Variable 5.8 mph - N/A   Overcast
3:55 PM 44.8 °F 40.4 °F 36.3 °F 72% 29.99 in 10.0 mi NNE 8.1 mph - N/A   Overcast
4:55 PM 44.1 °F 40.1 °F 36.0 °F 73% 30.00 in 10.0 mi NNE 6.9 mph - N/A   Overcast
5:25 PM 42.8 °F 39.3 °F 35.6 °F 76% 30.03 in 10.0 mi North 5.8 mph - N/A Rain Light Rain
5:55 PM 42.4 °F 38.1 °F 37.0 °F 81% 30.02 in 10.0 mi NNE 6.9 mph - 0.00 in Rain Light Rain
6:55 PM 41.5 °F 35.0 °F 36.5 °F 82% 30.02 in 10.0 mi NNE 11.5 mph - 0.00 in Rain Light Rain
6:56 PM 41.0 °F 35.2 °F 35.6 °F 81% 30.02 in 10.0 mi NNE 9.2 mph - N/A   Light Drizzle
7:55 PM 39.9 °F 35.8 °F 38.7 °F 95% 30.04 in 7.0 mi NNE 5.8 mph - 0.01 in Rain Light Rain
8:41 PM 39.2 °F 37.0 °F 39.2 °F 100% 30.05 in 10.0 mi NE 3.5 mph - N/A   Overcast
8:55 PM 39.4 °F 37.2 °F 38.7 °F 97% 30.04 in 9.0 mi ENE 3.5 mph - 0.01 in   Overcast
9:05 PM 39.2 °F 37.0 °F 39.2 °F 100% 30.05 in 9.0 mi ENE 3.5 mph - N/A   Mostly Cloudy
9:14 PM 39.2 °F 35.9 °F 37.4 °F 93% 30.06 in 10.0 mi NE 4.6 mph - N/A   Mostly Cloudy
9:55 PM 39.0 °F 35.7 °F 37.4 °F 94% 30.06 in 10.0 mi NE 4.6 mph - 0.00 in   Overcast
10:04 PM 39.2 °F 35.9 °F 37.4 °F 93% 30.05 in 10.0 mi NE 4.6 mph - N/A   Overcast
10:55 PM 38.7 °F 36.3 °F 37.4 °F 95% 30.06 in 10.0 mi NE 3.5 mph - N/A   Overcast
11:55 PM 38.7 °F 32.9 °F 36.3 °F 91% 30.05 in 10.0 mi NE 8.1 mph - 0.00 in Rain Light Rain